Location: Vlissingen
(51.4500°N, 3.5830°E)
Time: 12:47:43
(UTC+01:00)

N. Korean satellite - Pass Details

Date: 03 December 2021
Orbit: 447 x 490 km, 97.3° (Epoch: 27 January)

Event Time Altitude Azimuth Distance (km) Brightness Sun altitude
Rises 06:16:19 0° 12° (NNE) 2,478 10.2 -20.0°
Reaches altitude 10° 06:18:22 10° 12° (NNE) 1,595 9.2 -19.7°
Maximum altitude 06:21:47 82° 286° (WNW) 461 6.2 -19.2°
Drops below altitude 10° 06:25:09 10° 198° (SSW) 1,573 9.1 -18.7°
Sets 06:27:09 0° 197° (SSW) 2,439 10.1 -18.4°
